Location: Kernascl�den
(48.0062°N, 3.3198°W)
Time: 12:07:34
(UTC+00:00)

USA 234 - Pass Details

Date: 21 January 2021
Orbit: 1100 x 1107 km, 123.0° (Epoch: 01 March)

Event Time Altitude Azimuth Distance (km) Brightness Sun altitude
Exits shadow 17:55:45 12° 68° (ENE) 2,817 4.7 -9.9°
Maximum altitude 18:01:21 41° 3° (N) 1,558 3.9 -10.8°
Drops below altitude 10° 18:07:22 10° 296° (WNW) 2,968 6.2 -11.7°
Sets 18:09:59 0° 290° (WNW) 3,927 7.1 -12.1°
